Beaver Island, MI

3:54 AM EST on January 23, 2018 (GMT -0500)
Beaver Island

Weather History for KSJX - November, 2013

Change the Weather History Date:

Tuesday, November 12, 2013

  Actual Average Record
Temperature  
Mean Temperature 29 °F -  
Max Temperature 31 °F 40 °F 62 °F (1964)
Min Temperature 27 °F 29 °F 16 °F (1986)
Degree Days  
Heating Degree Days 36    
Moisture  
Dew Point 16 °F    
Average Humidity 60    
Maximum Humidity 80    
Minimum Humidity 41    
Precipitation  
Precipitation 0.00 in - - ()
Sea Level Pressure  
Sea Level Pressure 30.47 in    
Wind  
Wind Speed 13 mph (WNW)    
Max Wind Speed 21 mph    
Max Gust Speed 30 mph    
Visibility 10 miles    
Events Snow    
Averages and records for this station are not official NWS values.
T = Trace of Precipitation, MM = Missing Value Source: NWS Daily Summary

Daily Weather History Graph

Daily Weather History Graph

Search for Another Location

Airport or City:

Trip Planner

Search our weather history database for the weather conditions in past years. The results will help you decide how hot, cold, wet, or windy it might be!

Date:

Astronomy

Nov. 12, 2013 Rise Set
Actual Time 7:38 AM EST 5:14 PM EST
Civil Twilight 7:06 AM EST 5:46 PM EST
Nautical Twilight 6:30 AM EST 6:22 PM EST
Astronomical Twilight 5:55 AM EST 6:57 PM EST
Moon 2:41 PM EST (11/12) 2:12 AM EST (11/12)
Length of Visible Light 10h 40m
Length of Day
9h 36m
Waxing Gibbous, 76% of the Moon is Illuminated
Nov 12
Waxing Gibbous
Nov 17
Full
Nov 25
Last Quarter
Dec 2
New
Dec 9
First Quarter

Hourly Weather History & Observations

Time (EST) Temp. Windchill Dew Point Humidity Pressure Visibility Wind Dir Wind Speed Gust Speed Precip Events Conditions
12:16 AM 28.4 °F 18.5 °F 21.0 °F 74% 30.38 in 10.0 mi North 11.5 mph 17.3 mph N/A   Mostly Cloudy
12:36 AM 28.6 °F 19.3 °F 21.2 °F 74% 30.39 in 10.0 mi NNW 10.4 mph 18.4 mph N/A   Mostly Cloudy
12:55 AM 28.9 °F 19.8 °F 21.7 °F 74% 30.40 in 10.0 mi NNW 10.4 mph 20.7 mph N/A   Overcast
1:16 AM 28.9 °F 18.2 °F 23.4 °F 80% 30.40 in 7.0 mi NW 13.8 mph 24.2 mph N/A Snow Light Snow
1:35 AM 29.3 °F 18.6 °F 23.5 °F 79% 30.40 in 7.0 mi NW 13.8 mph 25.3 mph N/A Snow Light Snow
1:56 AM 29.7 °F 18.6 °F 23.5 °F 78% 30.41 in 10.0 mi NW 15.0 mph 23.0 mph N/A   Overcast
2:16 AM 29.7 °F 18.6 °F 22.3 °F 74% 30.42 in 10.0 mi NW 15.0 mph 26.5 mph N/A   Overcast
2:35 AM 29.3 °F 16.2 °F 21.6 °F 73% 30.42 in 10.0 mi NW 20.7 mph 26.5 mph N/A   Overcast
2:56 AM 29.3 °F 17.7 °F 20.8 °F 71% 30.43 in 10.0 mi NW 16.1 mph 25.3 mph N/A   Mostly Cloudy
3:15 AM 29.3 °F 18.2 °F 19.4 °F 67% 30.44 in 10.0 mi NW 15.0 mph 26.5 mph N/A   Overcast
3:36 AM 28.9 °F 16.9 °F 17.8 °F 63% 30.45 in 10.0 mi NW 17.3 mph 29.9 mph N/A   Overcast
3:56 AM 28.4 °F 16.6 °F 18.5 °F 66% 30.46 in 10.0 mi NW 16.1 mph 26.5 mph N/A   Overcast
4:15 AM 28.4 °F 15.4 °F 16.7 °F 62% 30.46 in 10.0 mi NW 19.6 mph 26.5 mph N/A   Overcast
4:36 AM 28.4 °F 15.4 °F 16.7 °F 62% 30.47 in 10.0 mi NW 19.6 mph 27.6 mph N/A   Overcast
4:56 AM 28.4 °F 16.6 °F 16.5 °F 61% 30.47 in 10.0 mi NW 16.1 mph 27.6 mph N/A   Overcast
5:15 AM 28.2 °F 16.3 °F 16.9 °F 63% 30.48 in 10.0 mi NW 16.1 mph 24.2 mph N/A   Overcast
5:36 AM 28.2 °F 16.8 °F 15.8 °F 60% 30.48 in 10.0 mi NW 15.0 mph 28.8 mph N/A   Overcast
5:55 AM 28.0 °F 16.1 °F 14.4 °F 57% 30.48 in 10.0 mi NW 16.1 mph 23.0 mph N/A   Overcast
6:16 AM 27.7 °F 15.6 °F 14.2 °F 57% 30.49 in 10.0 mi NW 16.1 mph 21.9 mph N/A   Overcast
6:36 AM 27.9 °F 17.8 °F 15.6 °F 60% 30.49 in 10.0 mi NW 11.5 mph 25.3 mph N/A   Overcast
6:55 AM 27.5 °F 16.8 °F 15.6 °F 61% 30.49 in 10.0 mi NW 12.7 mph 24.2 mph N/A   Overcast
7:16 AM 27.3 °F 16.6 °F 15.6 °F 61% 30.50 in 10.0 mi NW 12.7 mph 25.3 mph N/A   Overcast
7:36 AM 27.3 °F 17.1 °F 15.4 °F 61% 30.51 in 10.0 mi WNW 11.5 mph 27.6 mph N/A   Mostly Cloudy
7:56 AM 27.3 °F 16.1 °F 14.0 °F 57% 30.51 in 10.0 mi WNW 13.8 mph 26.5 mph N/A   Overcast
8:15 AM 27.1 °F 15.4 °F 14.9 °F 60% 30.51 in 10.0 mi NW 15.0 mph 25.3 mph N/A   Overcast
8:36 AM 27.1 °F 14.9 °F 14.2 °F 58% 30.52 in 10.0 mi NW 16.1 mph 25.3 mph N/A   Overcast
8:55 AM 27.3 °F 17.1 °F 15.4 °F 61% 30.52 in 10.0 mi NW 11.5 mph 19.6 mph N/A   Overcast
9:16 AM 27.0 °F 17.3 °F 15.8 °F 63% 30.52 in 10.0 mi NW 10.4 mph 24.2 mph N/A   Overcast
9:35 AM 27.1 °F 15.9 °F 17.4 °F 67% 30.53 in 7.0 mi NW 13.8 mph 24.2 mph N/A Snow Light Snow
9:56 AM 27.3 °F 17.1 °F 16.2 °F 63% 30.53 in 10.0 mi NW 11.5 mph 20.7 mph N/A   Overcast
10:16 AM 27.5 °F 17.4 °F 16.3 °F 63% 30.53 in 10.0 mi NW 11.5 mph 21.9 mph N/A   Mostly Cloudy
10:35 AM 27.1 °F 17.5 °F 17.1 °F 66% 30.53 in 10.0 mi NNW 10.4 mph 19.6 mph N/A   Overcast
10:56 AM 27.3 °F 17.7 °F 17.2 °F 66% 30.53 in 10.0 mi NW 10.4 mph 19.6 mph N/A   Overcast
11:16 AM 27.5 °F 17.4 °F 18.1 °F 68% 30.53 in 10.0 mi NW 11.5 mph 18.4 mph N/A   Overcast
11:35 AM 27.5 °F 18.0 °F 18.1 °F 68% 30.53 in 10.0 mi West 10.4 mph 19.6 mph N/A   Overcast
11:56 AM 27.5 °F 18.0 °F 17.6 °F 66% 30.53 in 10.0 mi WNW 10.4 mph - N/A   Mostly Cloudy
12:15 PM 27.3 °F 16.6 °F 17.6 °F 67% 30.53 in 10.0 mi NW 12.7 mph 18.4 mph N/A   Overcast
12:36 PM 27.7 °F 17.6 °F 19.2 °F 71% 30.52 in 10.0 mi NW 11.5 mph 21.9 mph N/A   Overcast
12:56 PM 28.2 °F 18.3 °F 18.9 °F 68% 30.52 in 10.0 mi WNW 11.5 mph 17.3 mph N/A   Overcast
1:16 PM 28.0 °F 17.0 °F 17.4 °F 64% 30.51 in 10.0 mi NW 13.8 mph 17.3 mph N/A   Mostly Cloudy
1:36 PM 28.6 °F 17.7 °F 17.8 °F 64% 30.51 in 10.0 mi NW 13.8 mph 20.7 mph N/A   Scattered Clouds
1:55 PM 28.4 °F 18.0 °F 17.8 °F 64% 30.51 in 10.0 mi WNW 12.7 mph 20.7 mph N/A   Scattered Clouds
2:16 PM 29.7 °F 19.1 °F 18.1 °F 62% 30.51 in 10.0 mi NW 13.8 mph 23.0 mph N/A   Scattered Clouds
2:36 PM 29.8 °F 19.8 °F 16.5 °F 58% 30.50 in 10.0 mi WNW 12.7 mph 20.7 mph N/A   Scattered Clouds
2:55 PM 30.9 °F 22.8 °F 16.9 °F 56% 30.49 in 10.0 mi WNW 9.2 mph 19.6 mph N/A   Mostly Cloudy
3:16 PM 30.2 °F 20.8 °F 14.0 °F 51% 30.49 in 10.0 mi West 11.5 mph 18.4 mph N/A   Mostly Cloudy
3:35 PM 30.2 °F 22.6 °F 12.7 °F 48% 30.49 in 10.0 mi NW 8.1 mph 16.1 mph N/A   Scattered Clouds
3:56 PM 29.8 °F 22.2 °F 15.4 °F 55% 30.48 in 10.0 mi West 8.1 mph - N/A   Scattered Clouds
4:16 PM 29.7 °F 22.0 °F 15.1 °F 55% 30.49 in 10.0 mi West 8.1 mph - N/A   Mostly Cloudy
4:35 PM 30.2 °F 22.6 °F 15.6 °F 55% 30.48 in 10.0 mi WNW 8.1 mph - N/A   Overcast
4:56 PM 29.3 °F 23.2 °F 14.7 °F 55% 30.49 in 10.0 mi West 5.8 mph - N/A   Scattered Clouds
5:15 PM 28.8 °F 21.7 °F 14.5 °F 55% 30.49 in 10.0 mi WNW 6.9 mph - N/A   Scattered Clouds
5:36 PM 28.2 °F 19.5 °F 13.8 °F 55% 30.49 in 10.0 mi West 9.2 mph - N/A   Scattered Clouds
5:56 PM 28.4 °F 20.4 °F 12.6 °F 52% 30.48 in 10.0 mi West 8.1 mph - N/A   Clear
6:15 PM 27.9 °F 19.8 °F 13.8 °F 56% 30.48 in 10.0 mi West 8.1 mph - N/A   Scattered Clouds
6:36 PM 28.4 °F 22.2 °F 13.8 °F 54% 30.46 in 10.0 mi West 5.8 mph - N/A   Scattered Clouds
6:55 PM 28.2 °F 21.0 °F 14.4 °F 56% 30.46 in 10.0 mi West 6.9 mph - N/A   Clear
7:16 PM 29.1 °F 20.6 °F 14.9 °F 55% 30.45 in 10.0 mi West 9.2 mph - N/A   Clear
7:36 PM 29.8 °F 23.0 °F 15.6 °F 56% 30.45 in 10.0 mi West 6.9 mph - N/A   Clear
7:55 PM 30.0 °F 22.4 °F 16.7 °F 58% 30.45 in 10.0 mi West 8.1 mph - N/A   Scattered Clouds
8:16 PM 30.2 °F 22.6 °F 16.7 °F 57% 30.44 in 10.0 mi West 8.1 mph - N/A   Clear
8:36 PM 30.2 °F 20.8 °F 16.0 °F 56% 30.44 in 10.0 mi West 11.5 mph 16.1 mph N/A   Clear
8:56 PM 30.2 °F 20.2 °F 15.4 °F 54% 30.43 in 10.0 mi West 12.7 mph 18.4 mph N/A   Clear
9:16 PM 30.2 °F 19.8 °F 9.5 °F 42% 30.43 in 10.0 mi West 13.8 mph 18.4 mph N/A   Clear
9:35 PM 30.2 °F 21.9 °F 10.4 °F 44% 30.43 in 10.0 mi West 9.2 mph 16.1 mph N/A   Clear
9:56 PM 30.2 °F 21.9 °F 10.2 °F 43% 30.42 in 10.0 mi West 9.2 mph 17.3 mph N/A   Clear
10:16 PM 30.2 °F 20.2 °F 9.3 °F 42% 30.41 in 10.0 mi West 12.7 mph 18.4 mph N/A   Clear
10:36 PM 30.7 °F 22.0 °F 9.7 °F 41% 30.40 in 10.0 mi West 10.4 mph - N/A   Clear
10:56 PM 30.9 °F 21.7 °F 10.4 °F 42% 30.41 in 10.0 mi West 11.5 mph 18.4 mph N/A   Clear
11:15 PM 30.9 °F 21.2 °F 11.1 °F 44% 30.41 in 10.0 mi West 12.7 mph 17.3 mph N/A   Clear
11:36 PM 31.1 °F 23.7 °F 10.8 °F 43% 30.40 in 10.0 mi West 8.1 mph 18.4 mph N/A   Clear
11:56 PM 31.1 °F 23.1 °F 10.6 °F 42% 30.41 in 10.0 mi West 9.2 mph - N/A   Clear